N8AAU Weather Reports


time (UTC)temp
F
wind
direction
speed
knots
gust
knots
rain 1hr
in
rain 24hr
in
rain mn
in
humidity
%
barometer
mb
20260510204004 60 331 0.0 2.6 0.00 0.00 0.00 29 1017.0
20260510203504 60 229 0.0 3.5 0.00 0.00 0.00 30 1017.1
20260510203005 60 316 0.0 3.5 0.00 0.00 0.00 30 1017.1
20260510202504 60 216 0.0 3.5 0.00 0.00 0.00 29 1017.3
20260510202004 61 300 0.0 1.7 0.00 0.00 0.00 30 1017.2
20260510201505 61 165 0.0 6.1 0.00 0.00 0.00 28 1017.2
20260510201004 61 244 0.0 6.1 0.00 0.00 0.00 30 1017.3
20260510200005 60 298 0.0 9.6 0.00 0.00 0.00 29 1017.5
20260510195505 60 280 0.0 1.7 0.00 0.04 0.00 29 1017.5
20260510195004 60 295 0.0 3.5 0.00 0.04 0.00 30 1017.5
20260510194504 60 233 0.0 3.5 0.00 0.04 0.00 27 1017.6
20260510194004 60 211 0.0 1.7 0.00 0.04 0.00 28 1017.5
20260510193504 61 340 0.0 1.7 0.00 0.04 0.00 27 1017.7
20260510193005 61 355 0.0 3.5 0.00 0.04 0.00 28 1017.5
20260510192505 61 235 0.0 7.0 0.00 0.04 0.00 30 1017.4
20260510192004 61 231 0.0 3.5 0.00 0.04 0.00 30 1017.5
20260510191505 61 335 0.0 3.5 0.00 0.04 0.00 31 1017.5
20260510191004 61 40 0.0 3.5 0.00 0.04 0.00 30 1017.7
20260510190504 60 322 0.9 7.8 0.00 0.04 0.00 30 1017.7
20260510190006 60 346 0.9 7.8 0.00 0.04 0.00 31 1017.6
20260510185504 60 300 0.0 6.1 0.00 0.04 0.00 30 1017.5
20260510185004 60 278 0.0 3.5 0.00 0.04 0.00 31 1017.6
20260510184504 60 290 0.0 3.5 0.00 0.04 0.00 29 1017.5
20260510184005 60 346 0.0 2.6 0.00 0.04 0.00 30 1017.6
20260510183504 60 243 0.0 5.2 0.00 0.04 0.00 30 1017.6
20260510183005 60 360 0.0 4.3 0.00 0.04 0.00 29 1017.5
20260510182504 60 334 0.0 2.6 0.00 0.04 0.00 30 1017.4
20260510181505 60 295 0.0 6.1 0.00 0.04 0.00 29 1017.4
20260510180504 59 250 0.0 7.0 0.00 0.04 0.00 29 1017.4
20260510180005 59 31 0.0 1.7 0.00 0.04 0.00 29 1017.3
20260510175504 59 350 0.0 0.0 0.00 0.04 0.00 30 1017.2
20260510174504 60 281 0.0 4.3 0.00 0.04 0.00 29 1017.5
20260510174000 60 244 0.0 3.5 0.00 0.04 0.00 30 1017.4
20260510173500 59 258 0.0 6.1 0.00 0.04 0.00 29 1017.3
20260510172505 59 275 0.9 7.0 0.00 0.04 0.00 30 1017.4
20260510172000 59 205 0.0 8.7 0.00 0.04 0.00 30 1017.4
20260510171504 59 269 0.0 8.7 0.00 0.04 0.00 30 1017.4
20260510171004 59 273 0.0 2.6 0.00 0.04 0.00 31 1017.5
20260510170500 58 279 0.0 4.3 0.00 0.04 0.00 31 1017.5
20260510170005 58 293 0.0 4.3 0.00 0.04 0.00 32 1017.5
20260510165005 58 309 0.0 0.9 0.00 0.04 0.00 31 1017.5
20260510164504 57 280 0.0 0.9 0.00 0.04 0.00 31 1017.5
20260510164004 57 308 0.0 0.9 0.00 0.04 0.00 31 1017.5
20260510163005 57 323 0.0 2.6 0.00 0.04 0.00 30 1017.6
20260510162505 57 292 0.0 1.7 0.00 0.04 0.00 30 1017.5
20260510162005 57 295 0.0 8.7 0.00 0.04 0.00 33 1017.5
20260510161505 57 49 0.0 0.9 0.00 0.04 0.00 34 1017.4
20260510161005 57 11 0.0 0.9 0.00 0.04 0.00 32 1017.3
20260510160505 57 345 0.0 0.9 0.00 0.04 0.00 31 1017.4
20260510160005 57 5 0.0 0.0 0.00 0.04 0.00 33 1017.3
20260510155504 57 292 0.0 1.7 0.00 0.04 0.00 31 1017.2
20260510155005 57 340 0.0 2.6 0.00 0.04 0.00 33 1017.1
20260510154505 57 164 0.0 2.6 0.00 0.04 0.00 34 1017.1
20260510154004 56 301 0.0 8.7 0.00 0.04 0.00 33 1017.1
20260510153503 56 314 0.0 8.7 0.00 0.04 0.00 33 1017.1
20260510153004 57 24 0.0 0.9 0.00 0.04 0.00 33 1017.0
20260510152003 57 327 0.0 2.6 0.00 0.04 0.00 35 1016.8
20260510151504 57 246 0.0 3.5 0.00 0.04 0.00 34 1016.8
20260510151004 57 310 0.0 4.3 0.00 0.04 0.00 36 1016.8
20260510150005 57 18 0.0 0.9 0.00 0.04 0.00 38 1016.6
20260510145504 56 21 0.0 0.9 0.00 0.04 0.00 38 1016.7
20260510145005 56 257 0.0 0.9 0.00 0.04 0.00 37 1016.6
20260510144505 56 331 0.0 0.9 0.00 0.04 0.00 36 1016.5
20260510144004 56 292 0.0 1.7 0.00 0.04 0.00 37 1016.6
20260510143459 55 315 0.0 1.7 0.00 0.04 0.00 39 1016.5
20260510143004 55 292 0.0 0.9 0.00 0.04 0.00 37 1016.5
20260510142500 55 221 0.0 0.9 0.00 0.04 0.00 38 1016.5
20260510142000 55 329 0.0 0.9 0.00 0.04 0.00 38 1016.4
20260510141504 55 26 0.0 2.6 0.00 0.04 0.00 39 1016.4
20260510141000 55 238 0.0 2.6 0.00 0.04 0.00 41 1016.5
20260510140005 54 207 0.0 3.5 0.00 0.04 0.00 42 1016.4
20260510135505 53 38 0.0 0.0 0.00 0.04 0.00 42 1016.4
20260510135004 53 11 0.0 0.0 0.00 0.04 0.00 44 1016.4
20260510134505 52 360 0.0 0.0 0.00 0.04 0.00 44 1016.4
20260510134004 52 321 0.0 0.0 0.00 0.04 0.00 44 1016.4
20260510133005 50 290 0.0 0.0 0.00 0.04 0.00 47 1016.4
20260510132504 49 5 0.0 0.0 0.00 0.04 0.00 48 1016.3
20260510132004 49 335 0.0 0.0 0.00 0.04 0.00 49 1016.2
20260510131005 48 311 0.0 0.0 0.00 0.04 0.00 48 1016.1
20260510125504 47 307 0.0 0.0 0.00 0.04 0.00 51 1016.0
20260510124504 47 32 0.0 0.0 0.00 0.04 0.00 53 1015.9
20260510124000 47 32 0.0 0.0 0.00 0.04 0.00 54 1015.8
20260510123459 46 19 0.0 0.0 0.00 0.04 0.00 54 1015.9
20260510122504 46 9 0.0 0.0 0.00 0.04 0.00 56 1015.8
20260510122005 46 34 0.0 0.0 0.00 0.04 0.00 57 1015.7
20260510121004 45 22 0.0 0.9 0.00 0.04 0.00 59 1015.7
20260510120504 45 28 0.0 2.6 0.00 0.04 0.00 60 1015.6
20260510120005 44 335 0.0 2.6 0.00 0.04 0.00 61 1015.4
20260510115504 44 348 0.0 0.0 0.00 0.04 0.00 61 1015.4
20260510115000 44 325 0.0 0.0 0.00 0.04 0.00 62 1015.3
20260510114505 43 19 0.0 0.0 0.00 0.04 0.00 63 1015.2
20260510114000 43 25 0.0 0.0 0.00 0.04 0.00 64 1015.1
20260510113500 43 20 0.0 0.0 0.00 0.04 0.00 65 1015.0
20260510113005 43 24 0.0 0.9 0.00 0.04 0.00 66 1015.0
20260510112500 42 19 0.0 0.9 0.00 0.04 0.00 66 1014.9
20260510112004 42 333 0.0 0.9 0.00 0.04 0.00 67 1014.8
20260510111504 42 319 0.0 0.9 0.00 0.04 0.00 68 1014.7
20260510110505 42 318 0.0 0.0 0.00 0.04 0.00 69 1014.7
20260510110005 41 5 0.0 0.0 0.00 0.04 0.00 69 1014.7
20260510105500 41 300 0.0 0.0 0.00 0.04 0.00 70 1014.6
20260510104505 41 300 0.0 0.0 0.00 0.04 0.00 70 1014.5
20260510104000 41 300 0.0 0.0 0.00 0.04 0.00 69 1014.3
20260510102459 42 19 0.0 0.0 0.00 0.04 0.00 69 1014.2
20260510101504 42 19 0.0 0.0 0.00 0.04 0.00 69 1014.1
20260510101004 42 19 0.0 0.0 0.00 0.04 0.00 68 1014.0
20260510100004 43 19 0.0 0.0 0.00 0.04 0.00 68 1013.9
20260510095504 43 19 0.0 0.0 0.00 0.04 0.00 67 1013.9
20260510095000 43 19 0.0 0.0 0.00 0.04 0.00 67 1013.7
20260510094505 43 19 0.0 0.0 0.00 0.04 0.00 66 1013.7
20260510093959 43 19 0.0 0.0 0.00 0.04 0.00 67 1013.7
20260510093504 43 19 0.0 0.0 0.00 0.04 0.00 67 1013.7
20260510092500 43 19 0.0 0.0 0.00 0.04 0.00 68 1013.6
20260510092000 43 19 0.0 0.0 0.00 0.04 0.00 68 1013.5
20260510091004 44 19 0.0 0.0 0.00 0.04 0.00 69 1013.4
20260510090504 44 19 0.0 0.0 0.00 0.04 0.00 69 1013.2
20260510090002 44 19 0.0 0.0 0.00 0.04 0.00 69 1013.1
20260510085504 44 19 0.0 0.0 0.00 0.04 0.00 68 1013.0
20260510084504 45 19 0.0 0.0 0.00 0.04 0.00 67 1012.7
20260510084000 45 19 0.0 0.0 0.00 0.04 0.00 67 1012.6
20260510083004 45 19 0.0 0.0 0.00 0.04 0.00 65 1012.4
20260510082504 45 19 0.0 0.0 0.00 0.04 0.00 65 1012.3
20260510081504 46 19 0.0 0.0 0.00 0.04 0.00 64 1012.1
20260510081005 46 19 0.0 0.0 0.00 0.04 0.00 64 1012.0
20260510080504 46 19 0.0 0.0 0.00 0.04 0.00 63 1011.9
20260510080005 47 19 0.0 0.0 0.00 0.04 0.00 63 1011.8
20260510075500 47 19 0.0 0.0 0.00 0.04 0.00 62 1011.6
20260510075004 47 19 0.0 0.0 0.00 0.04 0.00 61 1011.5
20260510074504 47 19 0.0 0.0 0.00 0.04 0.00 60 1011.4
20260510073959 48 21 0.0 0.0 0.00 0.04 0.00 59 1011.3
20260510073500 48 21 0.0 0.0 0.00 0.04 0.00 58 1011.2
20260510073006 48 21 0.0 0.0 0.00 0.04 0.00 58 1011.2
20260510071500 49 344 0.0 0.9 0.00 0.04 0.00 54 1010.8
20260510071003 49 15 0.0 3.5 0.00 0.04 0.00 55 1010.7
20260510070500 49 13 0.0 4.3 0.00 0.04 0.00 55 1010.7
20260510070005 49 11 0.0 4.3 0.00 0.04 0.00 56 1010.6
20260510065500 49 355 0.0 0.0 0.00 0.04 0.00 56 1010.6
20260510065000 50 333 0.0 0.0 0.00 0.04 0.00 56 1010.5
20260510064504 50 316 0.0 0.0 0.00 0.04 0.00 55 1010.4
20260510063500 50 24 0.0 0.0 0.00 0.04 0.00 55 1010.4
20260510063004 50 355 0.0 0.9 0.00 0.04 0.00 55 1010.3
20260510062000 50 15 0.0 0.0 0.00 0.04 0.00 57 1010.3
20260510061500 50 15 0.0 0.0 0.00 0.04 0.00 57 1010.3
20260510061004 50 15 0.0 0.0 0.00 0.04 0.00 58 1010.1
20260510060500 50 17 0.0 0.0 0.00 0.04 0.00 57 1010.1
20260510060004 50 17 0.0 0.0 0.00 0.04 0.00 57 1010.1
20260510054959 51 17 0.0 0.0 0.00 0.04 0.00 58 1009.9
20260510053459 52 17 0.0 0.0 0.00 0.04 0.00 56 1009.7
20260510053000 52 17 0.0 0.0 0.00 0.04 0.00 56 1009.6
20260510052458 52 15 0.0 0.0 0.00 0.04 0.00 57 1009.5
20260510051958 52 19 0.0 0.0 0.00 0.04 0.00 57 1009.4
20260510051500 52 19 0.0 0.0 0.00 0.04 0.00 56 1009.4
20260510050959 52 19 0.0 0.9 0.00 0.04 0.00 57 1009.3
20260510050459 53 19 0.0 3.5 0.00 0.04 0.00 56 1009.1
20260510050006 53 19 0.0 2.6 0.00 0.04 0.00 56 1009.0
20260510045505 53 19 0.0 0.0 0.00 0.04 0.00 56 1009.0
20260510045005 53 19 0.0 0.0 0.00 0.04 0.00 56 1008.9
20260510044005 54 19 0.0 0.0 0.00 0.04 0.00 56 1008.6
20260510043504 54 19 0.0 0.0 0.00 0.04 0.00 55 1008.6
20260510043005 54 17 0.0 1.7 0.00 0.04 0.00 55 1008.4
20260510042505 54 355 0.0 1.7 0.00 0.04 0.00 55 1008.4
20260510042005 55 22 0.0 0.9 0.00 0.04 0.00 55 1008.4
20260510041505 55 355 0.0 0.9 0.00 0.04 0.00 55 1008.5
20260510041004 55 40 0.0 1.7 0.00 0.04 0.00 54 1008.4
20260510040505 56 10 0.0 1.7 0.00 0.04 0.00 53 1008.2
20260510040005 56 36 0.0 2.6 0.00 0.04 0.04 53 1008.2
20260510035504 57 24 0.0 1.7 0.00 0.04 0.04 51 1008.0
20260510035004 57 23 0.0 0.9 0.00 0.04 0.04 49 1007.9
20260510034505 57 30 0.0 0.0 0.00 0.04 0.04 48 1007.8
20260510034005 58 30 0.0 0.0 0.00 0.04 0.04 47 1007.8
20260510033505 58 330 0.0 0.0 0.00 0.04 0.04 47 1007.6
20260510033006 58 348 0.0 0.0 0.00 0.04 0.04 47 1007.5
20260510031505 58 10 0.0 0.9 0.00 0.04 0.04 45 1007.3
20260510031005 59 331 0.0 0.9 0.00 0.04 0.04 45 1007.2
20260510030505 59 355 0.0 0.9 0.00 0.04 0.04 45 1007.1
20260510025505 59 5 0.0 0.0 0.00 0.04 0.04 44 1007.0
20260510025005 59 272 0.0 3.5 0.00 0.04 0.04 44 1006.9
20260510024504 60 5 0.0 3.5 0.00 0.04 0.04 44 1007.0
20260510024005 60 360 0.0 2.6 0.00 0.04 0.04 44 1006.9
20260510023505 60 5 0.0 2.6 0.00 0.04 0.04 43 1006.8
20260510023005 60 28 0.0 7.0 0.00 0.04 0.04 44 1006.7
20260510022505 61 5 0.0 7.0 0.00 0.04 0.04 43 1006.5
20260510022005 61 21 0.9 7.8 0.00 0.04 0.04 43 1006.2
20260510021505 61 324 0.9 7.8 0.00 0.04 0.04 45 1006.2
20260510021005 61 310 0.0 1.7 0.00 0.04 0.04 46 1005.8
20260510020505 61 325 0.0 3.5 0.00 0.04 0.04 46 1005.6
20260510020006 61 342 0.0 3.5 0.00 0.04 0.04 48 1005.5
20260510015505 61 13 0.0 0.0 0.00 0.04 0.04 49 1005.4
20260510014505 61 306 0.0 0.0 0.00 0.04 0.04 49 1005.0
20260510014005 61 306 0.0 0.0 0.00 0.04 0.04 48 1004.9
20260510013504 62 306 0.0 0.0 0.00 0.04 0.04 47 1004.7
20260510013005 62 306 0.0 0.0 0.00 0.04 0.04 47 1004.6
20260510012005 62 340 0.0 0.0 0.00 0.04 0.04 47 1004.3
20260510011506 62 339 0.0 0.0 0.00 0.04 0.04 46 1004.2
20260510011005 63 259 0.0 0.0 0.00 0.04 0.04 46 1004.1
20260510010505 63 207 0.0 0.0 0.00 0.04 0.04 45 1004.0
20260510010006 63 207 0.0 0.0 0.00 0.04 0.04 44 1004.0
20260510005505 64 213 0.0 0.0 0.00 0.04 0.04 43 1003.9
20260510005005 64 213 0.0 0.0 0.00 0.04 0.04 43 1003.8
20260510004005 64 213 0.0 2.6 0.00 0.04 0.04 42 1003.6
20260510003005 65 211 0.0 3.5 0.00 0.04 0.04 41 1003.5
20260510002504 65 223 0.0 3.5 0.00 0.04 0.04 40 1003.3
20260510002004 65 234 0.0 0.0 0.00 0.04 0.04 41 1003.3
20260510001505 65 220 0.0 0.9 0.00 0.04 0.04 40 1003.2
20260510001004 66 286 0.0 0.9 0.00 0.04 0.04 39 1003.2
20260510000006 66 286 0.0 0.0 0.00 0.04 0.04 39 1003.1
20260509235505 66 288 0.0 11.3 0.00 0.04 0.04 39 1003.1
20260509235005 66 244 0.0 11.3 0.00 0.04 0.04 38 1003.0
20260509234505 66 275 0.0 8.7 0.00 0.04 0.04 38 1002.9
20260509234004 67 231 0.0 8.7 0.00 0.04 0.04 38 1002.9
20260509233505 67 289 0.0 1.7 0.00 0.04 0.04 37 1002.8
20260509233006 67 238 0.0 1.7 0.00 0.04 0.04 37 1002.8
20260509232504 67 245 0.0 2.6 0.00 0.04 0.04 37 1002.8
20260509232004 67 267 0.0 2.6 0.00 0.04 0.04 36 1002.8
20260509231505 67 213 0.0 7.0 0.00 0.04 0.04 37 1002.7
20260509231004 67 262 0.0 7.0 0.00 0.04 0.04 36 1002.7
20260509230006 68 319 1.7 11.3 0.00 0.04 0.04 35 1002.8
20260509225504 68 302 1.7 11.3 0.00 0.04 0.04 34 1002.7
20260509225004 68 296 1.7 12.2 0.00 0.04 0.04 34 1002.6
20260509224505 69 230 1.7 13.0 0.00 0.04 0.04 34 1002.5
20260509224005 69 321 2.6 13.0 0.00 0.04 0.04 34 1002.4
20260509223504 69 276 1.7 13.0 0.00 0.04 0.04 33 1002.2
20260509223005 69 299 2.6 15.6 0.00 0.04 0.04 34 1002.1
20260509222505 69 223 2.6 15.6 0.00 0.04 0.04 34 1002.0
20260509222004 69 273 3.5 19.1 0.00 0.04 0.04 34 1001.8
20260509221505 69 257 4.3 19.1 0.00 0.04 0.04 34 1001.9
20260509221004 69 246 6.1 16.5 0.00 0.04 0.04 34 1001.6
20260509220504 69 250 4.3 20.9 0.00 0.04 0.04 34 1001.6
20260509220005 69 254 1.7 16.5 0.00 0.04 0.04 34 1001.5
20260509215505 69 238 1.7 10.4 0.00 0.04 0.04 35 1001.5
20260509215004 69 290 2.6 14.8 0.00 0.04 0.04 35 1001.3
20260509214505 69 238 1.7 14.8 0.00 0.04 0.04 35 1001.5
20260509214004 69 291 2.6 14.8 0.00 0.04 0.04 36 1001.4
20260509213504 69 290 3.5 14.8 0.00 0.04 0.04 35 1001.3
20260509213006 69 245 3.5 16.5 0.00 0.04 0.04 35 1001.2
20260509212505 69 196 2.6 16.5 0.00 0.04 0.04 36 1001.2
20260509212005 69 313 2.6 13.9 0.00 0.04 0.04 36 1001.3
20260509211505 68 257 1.7 12.2 0.00 0.04 0.04 37 1001.2
20260509211005 68 275 0.9 7.8 0.00 0.04 0.04 37 1001.5
20260509210505 68 251 0.0 5.2 0.00 0.04 0.04 36 1001.5
20260509210005 68 290 0.0 5.2 0.00 0.04 0.04 39 1001.5